IRIDIUM 178

Last updated on Tue Sep 22 2026 00:03:21 GMT+0000 (Coordinated Universal Time)

1 56729U 23068V 26264.58781102 .00000562 00000+0 70770-4 0 9997 2 56729 86.6592 345.1075 0002533 93.0390 267.1121 14.80046700180626
UTC large
Height (km)
Speed (km/s)
/
Latitude / Longitude
Inclination (degrees)
Orbital Period (minutes)
Azimuth
Elevation
Range (km)
Doppler Factor

Next 0 passes for location: London (51.5072 / 0.1276)

No passes found over London.
IRIDIUM 178